Location: Napa Soda Springs
(38.3907°N, 122.2794°W)
Time: 21:38:12
(UTC+00:00)

Cosmos 1023 Rocket - Pass Details

Date: 29 October 2020
Orbit: 736 x 772 km, 74.1° (Epoch: 23 November)

Event Time Altitude Azimuth Distance (km) Brightness Sun altitude
Rises 13:34:34 0° 199° (SSW) 3,159 7.6 -12.0°
Reaches altitude 10° 13:36:54 10° 200° (SSW) 2,237 6.8 -11.5°
Maximum altitude 13:41:58 81° 288° (WNW) 750 4.4 -10.6°
Drops below altitude 10° 13:47:03 10° 16° (NNE) 2,248 7.0 -9.6°
Sets 13:49:25 0° 18° (NNE) 3,176 7.8 -9.1°
